Regional Weather Roundup
Issued by NWS

Home | Current Version | Previous Version | Text Only | Print | Product List | Glossary On
Versions: 1 2 3 4 5 6 7 8 9 10 11 12 13 14 15 16 17 18 19 20 21 22 23 24 25 26 27 28 29 30 31 32 33 34 35 36 37 38 39 40 41 42 43 44 45 46 47 48 49 50
000
ASUS45 KTFX 280410
RWRMT
MONTANA REGIONAL WEATHER ROUNDUP
NATIONAL WEATHER SERVICE GREAT FALLS MT
1000 PM MDT WED MAY 27 2015

NOTE: "FAIR" INDICATES FEW OR NO CLOUDS BELOW 12000 FEET WITH NO
SIGNIFICANT WEATHER AND/OR OBSTRUCTIONS TO VISIBILITY.

MTZ001>007-043-280500-
WEST OF THE DIVIDE

CITY           SKY/WX    TMP DP  RH WIND       PRES   REMARKS
KALISPELL      CLOUDY    54  47  77 CALM      29.99R
MISSOULA       CLOUDY    58  43  57 N3        30.01R
BUTTE          MOCLDY    50  41  71 N5        30.08R
MULLAN PASS    PTCLDY    46  42  86 NW5       30.09R
DEER LODGE       N/A     52  45  76 CALM      30.10R
EUREKA           N/A     63  46  55 SE8       29.96R
HAMILTON         N/A     50  46  87 S8        30.05R
LIBBY            N/A     59  50  72 SE5       29.98R
PLAINS           N/A     58  52  80 W1        30.01
RONAN            N/A     57  49  75 W2        30.05R
THOMPSON FALLS   N/A     55  50  83 CALM      30.04R
$$

MTZ008-052>055-280500-
SOUTHWEST MONTANA

CITY           SKY/WX    TMP DP  RH WIND       PRES   REMARKS
BOZEMAN        MOCLDY    49  44  83 CALM      30.04R
DILLON         MOCLDY    49  44  83 SW3       30.05R
W YELLOWSTONE  CLOUDY    41  37  87 W6        30.12R
THREE FORKS      N/A     56  56 100 SW6       30.03R
$$

MTZ009-010-012-014-046-048-049-054-280500-
EAST SLOPES AND CENTRAL MONTANA

CITY           SKY/WX    TMP DP  RH WIND       PRES   REMARKS
CUT BANK       CLOUDY    53  48  83 CALM      29.99R
GREAT FALLS    MOCLDY    55  47  74 N3        29.98R
HELENA         CLOUDY    56  45  66 SW10      30.01R
CONRAD           N/A     55  55 100 N1        30.01R
$$

MTZ011-013-016-021-045-047-050-051-280500-
NORTH CENTRAL MONTANA

CITY           SKY/WX    TMP DP  RH WIND       PRES   REMARKS
HAVRE          CLOUDY    55  53  93 MISG      29.94R
LEWISTOWN      MOCLDY    55  51  86 S5        29.99R
N BAR RANCH    MOCLDY    54  48  82 W5        30.03R
CHINOOK          N/A     59  54  82 CALM      29.94R
FORT BENTON      N/A     57  52  82 SW5       29.97R
$$

MTZ017>020-022>027-061-062-280500-
NORTHEAST MONTANA

CITY           SKY/WX    TMP DP  RH WIND       PRES   REMARKS
GLASGOW        CLOUDY    62  55  77 SE7       29.88S
JORDAN           N/A     56  52  86 CALM      29.91R
SIDNEY         MOCLDY    55  52  88 CALM      29.92R
WOLF POINT     CLOUDY    62  55  77 E3        29.90R
MALTA            N/A     61  48  62 N7        29.87R
PLENTYWOOD       N/A     61  52  72 E6        29.94R
POPLAR           N/A     61  55  82 E7        29.91S
SCOBEY           N/A     57  51  80 E10       29.92R
$$

MTZ028>42-056>058-280500-
SOUTHCENTRAL AND SOUTHEAST MONTANA

CITY           SKY/WX    TMP DP  RH WIND       PRES   REMARKS
BAKER          PTCLDY    54  52  93 S9        29.95R
BILLINGS       MOCLDY    55  47  74 W12       29.98R
LIVINGSTON     PTCLDY    53  42  66 SW10      30.01R
MILES CITY     PTCLDY    57  55  93 W3        29.92R
BIG TIMBER       N/A     52  45  76 SW6       30.03R
FORSYTH          N/A     59  55  88 CALM      29.94R
LAUREL           N/A     52  40  63 W3        29.97R
ROUNDUP          N/A     59  48  66 CALM      29.90R
$$

REGIONAL REPORTS...DAKOTAS

CITY           SKY/WX    TMP DP  RH WIND       PRES   REMARKS
WILLISTON      CLOUDY    61  54  77 CALM      29.92R
MINOT          LGT RAIN  61  55  81 NW3       29.94S
DICKINSON      CLOUDY    55  54  96 S6        29.90S
BEACH          FAIR      52  52 100 S5        29.95R
CROSBY         CLOUDY    57  57 100 E9        29.96R
WATFORD CITY   MOCLDY    57  57 100 CALM      29.90R
BISMARCK       LGT RAIN  62  58  86 NW7       29.99R FOG
GRAND FORKS    MOCLDY    61  50  67 CALM      29.99R
FARGO          CLOUDY    68  55  63 NW12      29.99S
BUFFALO SD       N/A     56  54  93 NE7       29.90R
RAPID CITY     CLEAR     61  52  72 W5        29.93R
$$

REGIONAL REPORTS...WYOMING/IDAHO/WASHINGTON

CITY           SKY/WX    TMP DP  RH WIND       PRES   REMARKS
GILLETTE       CLOUDY    57  54  89 CALM      29.98R
SHERIDAN       CLOUDY    57  52  83 NW3       29.99R
BUFFALO WY     LGT RAIN  56  52  86 W8        30.04R
CODY           CLOUDY    52  45  76 N8        30.04R
YELLOWSTONE LA   N/A     38  35  89 CALM      30.18R
IDAHO FALLS    CLOUDY    50  45  83 N8        30.10R
SALMON         CLOUDY    52  45  76 NW5       30.05R
BOISE          CLEAR     65  41  41 NW6       29.98R
SPOKANE        PTCLDY    68  48  48 S3        29.98R
$$

REGIONAL REPORTS...ALBERTA

CITY           SKY/WX    TMP DP  RH WIND       PRES   REMARKS
EDMONTON       RAIN      61  50  67 W8        29.95R
CALGARY        MOCLDY    61  43  51 N8        29.96R
LETHBRIDGE     MOCLDY    54  46  76 SW8       29.95R
MEDICINE HAT   PTCLDY    59  50  72 N10       29.94R
$$

REGIONAL REPORTS...SASKATCHEWAN

CITY           SKY/WX    TMP DP  RH WIND       PRES   REMARKS
SWIFT CURRENT  CLOUDY    57  48  72 NE7       29.93S
REGINA         PTCLDY    61  48  63 S7        29.95R
SASKATOON      PTCLDY    57  39  51 SE7       29.95R
$$



USA.gov is the U.S. government's official web portal to all federal, state and local government web resources and services.